Year,Month,Day,Hour,Minute,Value (Times are PST for temperature in C)
2010,08,14,00,00,18.60
2010,08,14,00,01,18.60
2010,08,14,00,02,18.60
2010,08,14,00,03,18.60
2010,08,14,00,04,18.60
2010,08,14,00,05,18.60
2010,08,14,00,06,18.60
2010,08,14,00,07,18.60
2010,08,14,00,08,18.50
2010,08,14,00,09,18.50
2010,08,14,00,10,18.50
2010,08,14,00,11,18.50
2010,08,14,00,12,18.60
2010,08,14,00,13,18.60
2010,08,14,00,14,18.60
2010,08,14,00,15,18.60
2010,08,14,00,16,18.60
2010,08,14,00,17,18.60
2010,08,14,00,18,18.50
2010,08,14,00,19,18.50
2010,08,14,00,20,18.50
2010,08,14,00,21,18.50
2010,08,14,00,22,18.40
2010,08,14,00,23,18.40
2010,08,14,00,24,18.40
2010,08,14,00,25,18.40
2010,08,14,00,26,18.30
2010,08,14,00,27,18.30
2010,08,14,00,28,18.30
2010,08,14,00,29,18.30
2010,08,14,00,30,18.30
2010,08,14,00,31,18.20
2010,08,14,00,32,18.20
2010,08,14,00,33,18.20
2010,08,14,00,34,18.20
2010,08,14,00,35,18.20
2010,08,14,00,36,18.20
2010,08,14,00,37,18.20
2010,08,14,00,38,18.20
2010,08,14,00,39,18.20
2010,08,14,00,40,18.10
2010,08,14,00,41,18.10
2010,08,14,00,42,18.10
2010,08,14,00,43,18.10
2010,08,14,00,44,18.10
2010,08,14,00,45,18.10
2010,08,14,00,46,18.10
2010,08,14,00,47,18.10
2010,08,14,00,48,18.10
2010,08,14,00,49,18.10
2010,08,14,00,50,18.10
2010,08,14,00,51,18.00
2010,08,14,00,52,17.90
2010,08,14,00,53,17.90
2010,08,14,00,54,17.90
2010,08,14,00,55,17.90
2010,08,14,00,56,17.90
2010,08,14,00,57,17.90
2010,08,14,00,58,17.90
2010,08,14,00,59,17.90
2010,08,14,01,00,17.90
2010,08,14,01,01,17.90
2010,08,14,01,02,17.90
2010,08,14,01,03,17.90
2010,08,14,01,04,17.90
2010,08,14,01,05,17.90
2010,08,14,01,06,17.90
2010,08,14,01,07,17.80
2010,08,14,01,08,17.80
2010,08,14,01,09,17.80
2010,08,14,01,10,17.80
2010,08,14,01,11,17.80
2010,08,14,01,12,17.80
2010,08,14,01,13,17.80
2010,08,14,01,14,17.80
2010,08,14,01,15,17.80
2010,08,14,01,16,17.80
2010,08,14,01,17,17.80
2010,08,14,01,18,17.80
2010,08,14,01,19,17.80
2010,08,14,01,20,17.80
2010,08,14,01,21,17.80
2010,08,14,01,22,17.80
2010,08,14,01,23,17.80
2010,08,14,01,24,17.80
2010,08,14,01,25,17.80
2010,08,14,01,26,17.80
2010,08,14,01,27,17.80
2010,08,14,01,28,17.80
2010,08,14,01,29,17.70
2010,08,14,01,30,17.70
2010,08,14,01,31,17.70
2010,08,14,01,32,17.70
2010,08,14,01,33,17.70
2010,08,14,01,34,17.70
2010,08,14,01,35,17.70
2010,08,14,01,36,17.70
2010,08,14,01,37,17.70
2010,08,14,01,38,17.70
2010,08,14,01,39,17.70
2010,08,14,01,40,17.70
2010,08,14,01,41,17.70
2010,08,14,01,42,17.70
2010,08,14,01,43,17.80
2010,08,14,01,44,17.80
2010,08,14,01,45,17.80
2010,08,14,01,46,17.80
2010,08,14,01,47,17.80
2010,08,14,01,48,17.80
2010,08,14,01,49,17.80
2010,08,14,01,50,17.80
2010,08,14,01,51,17.80
2010,08,14,01,52,17.80
2010,08,14,01,53,17.80
2010,08,14,01,54,17.80
2010,08,14,01,55,17.80
2010,08,14,01,56,17.80
2010,08,14,01,57,17.80
2010,08,14,01,58,17.80
2010,08,14,01,59,17.70
2010,08,14,02,00,17.70
2010,08,14,02,01,17.70
2010,08,14,02,02,17.60
2010,08,14,02,03,17.60
2010,08,14,02,04,17.60
2010,08,14,02,05,17.60
2010,08,14,02,06,17.50
2010,08,14,02,07,17.50
2010,08,14,02,08,17.50
2010,08,14,02,09,17.50
2010,08,14,02,10,17.50
2010,08,14,02,11,17.40
2010,08,14,02,12,17.40
2010,08,14,02,13,17.40
2010,08,14,02,14,17.40
2010,08,14,02,15,17.40
2010,08,14,02,16,17.40
2010,08,14,02,17,17.40
2010,08,14,02,18,17.40
2010,08,14,02,19,17.40
2010,08,14,02,20,17.40
2010,08,14,02,21,17.40
2010,08,14,02,22,17.30
2010,08,14,02,23,17.30
2010,08,14,02,24,17.30
2010,08,14,02,25,17.30
2010,08,14,02,26,17.30
2010,08,14,02,27,17.30
2010,08,14,02,28,17.30
2010,08,14,02,29,17.30
2010,08,14,02,30,17.30
2010,08,14,02,31,17.30
2010,08,14,02,32,17.30
2010,08,14,02,33,17.30
2010,08,14,02,34,17.40
2010,08,14,02,35,17.40
2010,08,14,02,36,17.40
2010,08,14,02,37,17.40
2010,08,14,02,38,17.40
2010,08,14,02,39,17.40
2010,08,14,02,40,17.40
2010,08,14,02,41,17.50
2010,08,14,02,42,17.50
2010,08,14,02,43,17.50
2010,08,14,02,44,17.50
2010,08,14,02,45,17.40
2010,08,14,02,46,17.40
2010,08,14,02,47,17.40
2010,08,14,02,48,17.40
2010,08,14,02,49,17.40
2010,08,14,02,50,17.30
2010,08,14,02,51,17.30
2010,08,14,02,52,17.30
2010,08,14,02,53,17.30
2010,08,14,02,54,17.30
2010,08,14,02,55,17.30
2010,08,14,02,56,17.30
2010,08,14,02,57,17.30
2010,08,14,02,58,17.20
2010,08,14,02,59,17.20
2010,08,14,03,00,17.20
2010,08,14,03,01,17.10
2010,08,14,03,02,17.10
2010,08,14,03,03,17.10
2010,08,14,03,04,17.00
2010,08,14,03,05,17.00
2010,08,14,03,06,17.00
2010,08,14,03,07,17.00
2010,08,14,03,08,17.00
2010,08,14,03,09,17.00
2010,08,14,03,10,17.00
2010,08,14,03,11,17.00
2010,08,14,03,12,16.90
2010,08,14,03,13,16.90
2010,08,14,03,14,16.90
2010,08,14,03,15,16.90
2010,08,14,03,16,16.90
2010,08,14,03,17,16.90
2010,08,14,03,18,16.90
2010,08,14,03,19,16.90
2010,08,14,03,20,16.80
2010,08,14,03,21,16.80
2010,08,14,03,22,16.80
2010,08,14,03,23,16.70
2010,08,14,03,24,16.70
2010,08,14,03,25,16.70
2010,08,14,03,26,16.70
2010,08,14,03,27,16.70
2010,08,14,03,28,16.70
2010,08,14,03,29,16.70
2010,08,14,03,30,16.70
2010,08,14,03,31,16.60
2010,08,14,03,32,16.60
2010,08,14,03,33,16.50
2010,08,14,03,34,16.40
2010,08,14,03,35,16.30
2010,08,14,03,36,16.30
2010,08,14,03,37,16.20
2010,08,14,03,38,16.20
2010,08,14,03,39,16.20
2010,08,14,03,40,16.20
2010,08,14,03,41,16.20
2010,08,14,03,42,16.10
2010,08,14,03,43,16.10
2010,08,14,03,44,16.10
2010,08,14,03,45,15.90
2010,08,14,03,46,15.90
2010,08,14,03,47,15.90
2010,08,14,03,48,15.80
2010,08,14,03,49,15.80
2010,08,14,03,50,15.70
2010,08,14,03,51,15.70
2010,08,14,03,52,15.60
2010,08,14,03,53,15.50
2010,08,14,03,54,15.50
2010,08,14,03,55,15.40
2010,08,14,03,56,15.40
2010,08,14,03,57,15.40
2010,08,14,03,58,15.30
2010,08,14,03,59,15.30
2010,08,14,04,00,15.30
2010,08,14,04,01,15.30
2010,08,14,04,02,15.20
2010,08,14,04,03,15.20
2010,08,14,04,04,15.20
2010,08,14,04,05,15.20
2010,08,14,04,06,15.10
2010,08,14,04,07,15.10
2010,08,14,04,08,15.10
2010,08,14,04,09,15.10
2010,08,14,04,10,15.10
2010,08,14,04,11,15.10
2010,08,14,04,12,15.10
2010,08,14,04,13,15.10
2010,08,14,04,14,15.10
2010,08,14,04,15,15.00
2010,08,14,04,16,15.00
2010,08,14,04,17,15.00
2010,08,14,04,18,15.00
2010,08,14,04,19,15.00
2010,08,14,04,20,14.90
2010,08,14,04,21,14.90
2010,08,14,04,22,14.90
2010,08,14,04,23,15.00
2010,08,14,04,24,15.00
2010,08,14,04,25,15.00
2010,08,14,04,26,15.00
2010,08,14,04,27,15.10
2010,08,14,04,28,15.10
2010,08,14,04,29,15.10
2010,08,14,04,30,15.10
2010,08,14,04,31,15.20
2010,08,14,04,32,15.20
2010,08,14,04,33,15.20
2010,08,14,04,34,15.20
2010,08,14,04,35,15.20
2010,08,14,04,36,15.20
2010,08,14,04,37,15.20
2010,08,14,04,38,15.20
2010,08,14,04,39,15.20
2010,08,14,04,40,15.20
2010,08,14,04,41,15.20
2010,08,14,04,42,15.20
2010,08,14,04,43,15.20
2010,08,14,04,44,15.30
2010,08,14,04,45,15.30
2010,08,14,04,46,15.30
2010,08,14,04,47,15.30
2010,08,14,04,48,15.30
2010,08,14,04,49,15.30
2010,08,14,04,50,15.30
2010,08,14,04,51,15.40
2010,08,14,04,52,15.40
2010,08,14,04,53,15.40
2010,08,14,04,54,15.40
2010,08,14,04,55,15.40
2010,08,14,04,56,15.40
2010,08,14,04,57,15.40
2010,08,14,04,58,15.40
2010,08,14,04,59,15.30
2010,08,14,05,00,15.30
2010,08,14,05,01,15.30
2010,08,14,05,02,15.30
2010,08,14,05,03,15.20
2010,08,14,05,04,15.20
2010,08,14,05,05,15.20
2010,08,14,05,06,15.10
2010,08,14,05,07,15.10
2010,08,14,05,08,15.10
2010,08,14,05,09,15.10
2010,08,14,05,10,15.10
2010,08,14,05,11,15.10
2010,08,14,05,12,15.10
2010,08,14,05,13,15.00
2010,08,14,05,14,15.00
2010,08,14,05,15,14.90
2010,08,14,05,16,14.90
2010,08,14,05,17,14.80
2010,08,14,05,18,14.80
2010,08,14,05,19,14.80
2010,08,14,05,20,14.70
2010,08,14,05,21,14.70
2010,08,14,05,22,14.60
2010,08,14,05,23,14.60
2010,08,14,05,24,14.60
2010,08,14,05,25,14.60
2010,08,14,05,26,14.50
2010,08,14,05,27,14.50
2010,08,14,05,28,14.50
2010,08,14,05,29,14.60
2010,08,14,05,30,14.60
2010,08,14,05,31,14.60
2010,08,14,05,32,14.60
2010,08,14,05,33,14.50
2010,08,14,05,34,14.50
2010,08,14,05,35,14.50
2010,08,14,05,36,14.40
2010,08,14,05,37,14.40
2010,08,14,05,38,14.40
2010,08,14,05,39,14.30
2010,08,14,05,40,14.30
2010,08,14,05,41,14.30
2010,08,14,05,42,14.30
2010,08,14,05,43,14.30
2010,08,14,05,44,14.30
2010,08,14,05,45,14.30
2010,08,14,05,46,14.40
2010,08,14,05,47,14.40
2010,08,14,05,48,14.40
2010,08,14,05,49,14.40
2010,08,14,05,50,14.50
2010,08,14,05,51,14.50
2010,08,14,05,52,14.50
2010,08,14,05,53,14.60
2010,08,14,05,54,14.60
2010,08,14,05,55,14.70
2010,08,14,05,56,14.70
2010,08,14,05,57,14.70
2010,08,14,05,58,14.70
2010,08,14,05,59,14.60
2010,08,14,06,00,14.50
2010,08,14,06,01,14.50
2010,08,14,06,02,14.50
2010,08,14,06,03,14.40
2010,08,14,06,04,14.40
2010,08,14,06,05,14.40
2010,08,14,06,06,14.40
2010,08,14,06,07,14.40
2010,08,14,06,08,14.40
2010,08,14,06,09,14.50
2010,08,14,06,10,14.50
2010,08,14,06,11,14.50
2010,08,14,06,12,14.50
2010,08,14,06,13,14.50
2010,08,14,06,14,14.40
2010,08,14,06,15,14.40
2010,08,14,06,16,14.40
2010,08,14,06,17,14.40
2010,08,14,06,18,14.40
2010,08,14,06,19,14.40
2010,08,14,06,20,14.40
2010,08,14,06,21,14.40
2010,08,14,06,22,14.30
2010,08,14,06,23,14.30
2010,08,14,06,24,14.30
2010,08,14,06,25,14.40
2010,08,14,06,26,14.40
2010,08,14,06,27,14.40
2010,08,14,06,28,14.50
2010,08,14,06,29,14.70
2010,08,14,06,30,14.80
2010,08,14,06,31,15.00
2010,08,14,06,32,15.00
2010,08,14,06,33,15.20
2010,08,14,06,34,15.30
2010,08,14,06,35,15.50
2010,08,14,06,36,15.60
2010,08,14,06,37,15.70
2010,08,14,06,38,15.80
2010,08,14,06,39,16.00
2010,08,14,06,40,16.10
2010,08,14,06,41,16.20
2010,08,14,06,42,16.20
2010,08,14,06,43,16.20
2010,08,14,06,44,16.20
2010,08,14,06,45,16.20
2010,08,14,06,46,16.10
2010,08,14,06,47,16.10
2010,08,14,06,48,16.00
2010,08,14,06,49,15.90
2010,08,14,06,50,15.70
2010,08,14,06,51,15.60
2010,08,14,06,52,15.50
2010,08,14,06,53,15.40
2010,08,14,06,54,15.30
2010,08,14,06,55,15.20
2010,08,14,06,56,15.10
2010,08,14,06,57,15.00
2010,08,14,06,58,14.90
2010,08,14,06,59,14.80
2010,08,14,07,00,14.70
2010,08,14,07,01,14.50
2010,08,14,07,02,14.50
2010,08,14,07,03,14.40
2010,08,14,07,04,14.30
2010,08,14,07,05,14.30
2010,08,14,07,06,14.20
2010,08,14,07,07,14.20
2010,08,14,07,08,14.20
2010,08,14,07,09,14.20
2010,08,14,07,10,14.20
2010,08,14,07,11,14.20
2010,08,14,07,12,14.20
2010,08,14,07,13,14.30
2010,08,14,07,14,14.40
2010,08,14,07,15,14.50
2010,08,14,07,16,14.60
2010,08,14,07,17,14.60
2010,08,14,07,18,14.70
2010,08,14,07,19,14.80
2010,08,14,07,20,14.80
2010,08,14,07,21,14.90
2010,08,14,07,22,14.90
2010,08,14,07,23,15.00
2010,08,14,07,24,15.10
2010,08,14,07,25,15.20
2010,08,14,07,26,15.30
2010,08,14,07,27,15.30
2010,08,14,07,28,15.50
2010,08,14,07,29,15.50
2010,08,14,07,30,15.60
2010,08,14,07,31,15.70
2010,08,14,07,32,15.80
2010,08,14,07,33,15.80
2010,08,14,07,34,15.90
2010,08,14,07,35,16.10
2010,08,14,07,36,16.20
2010,08,14,07,37,16.30
2010,08,14,07,38,16.40
2010,08,14,07,39,16.50
2010,08,14,07,40,16.70
2010,08,14,07,41,16.70
2010,08,14,07,42,16.80
2010,08,14,07,43,16.90
2010,08,14,07,44,17.00
2010,08,14,07,45,17.10
2010,08,14,07,46,17.20
2010,08,14,07,47,17.30
2010,08,14,07,48,17.40
2010,08,14,07,49,17.50
2010,08,14,07,50,17.60
2010,08,14,07,51,17.70
2010,08,14,07,52,17.80
2010,08,14,07,53,17.90
2010,08,14,07,54,18.00
2010,08,14,07,55,18.10
2010,08,14,07,56,18.20
2010,08,14,07,57,18.20
2010,08,14,07,58,18.20
2010,08,14,07,59,18.20
2010,08,14,08,00,18.30
2010,08,14,08,01,18.30
2010,08,14,08,02,18.30
2010,08,14,08,03,18.40
2010,08,14,08,04,18.40
2010,08,14,08,05,18.40
2010,08,14,08,06,18.40
2010,08,14,08,07,18.30
2010,08,14,08,08,18.20
2010,08,14,08,09,18.10
2010,08,14,08,10,18.10
2010,08,14,08,11,18.00
2010,08,14,08,12,17.90
2010,08,14,08,13,17.90
2010,08,14,08,14,17.90
2010,08,14,08,15,18.00
2010,08,14,08,16,18.10
2010,08,14,08,17,18.10
2010,08,14,08,18,18.20
2010,08,14,08,19,18.30
2010,08,14,08,20,18.40
2010,08,14,08,21,18.50
2010,08,14,08,22,18.70
2010,08,14,08,23,18.80
2010,08,14,08,24,19.00
2010,08,14,08,25,19.20
2010,08,14,08,26,19.40
2010,08,14,08,27,19.50
2010,08,14,08,28,19.60
2010,08,14,08,29,19.70
2010,08,14,08,30,19.70
2010,08,14,08,31,19.60
2010,08,14,08,32,19.60
2010,08,14,08,33,19.40
2010,08,14,08,34,19.20
2010,08,14,08,35,19.00
2010,08,14,08,36,18.80
2010,08,14,08,37,18.70
2010,08,14,08,38,18.60
2010,08,14,08,39,18.50
2010,08,14,08,40,18.50
2010,08,14,08,41,18.40
2010,08,14,08,42,18.50
2010,08,14,08,43,18.50
2010,08,14,08,44,18.70
2010,08,14,08,45,19.00
2010,08,14,08,46,19.10
2010,08,14,08,47,19.30
2010,08,14,08,48,19.60
2010,08,14,08,49,20.00
2010,08,14,08,50,20.50
2010,08,14,08,51,20.90
2010,08,14,08,52,21.00
2010,08,14,08,53,21.00
2010,08,14,08,54,21.40
2010,08,14,08,55,23.00
2010,08,14,08,56,23.40
2010,08,14,08,57,23.80
2010,08,14,08,58,24.20
2010,08,14,08,59,24.50
2010,08,14,09,00,24.70
2010,08,14,09,01,24.90
2010,08,14,09,02,25.10
2010,08,14,09,03,25.30
2010,08,14,09,04,25.40
2010,08,14,09,05,25.50
2010,08,14,09,06,25.60
2010,08,14,09,07,25.60
2010,08,14,09,08,25.70
2010,08,14,09,09,25.70
2010,08,14,09,10,25.70
2010,08,14,09,11,25.80
2010,08,14,09,12,25.80
2010,08,14,09,13,25.80
2010,08,14,09,14,25.80
2010,08,14,09,15,25.80
2010,08,14,09,16,25.90
2010,08,14,09,17,25.90
2010,08,14,09,18,25.90
2010,08,14,09,19,25.90
2010,08,14,09,20,25.80
2010,08,14,09,21,25.80
2010,08,14,09,22,25.80
2010,08,14,09,23,25.80
2010,08,14,09,24,25.80
2010,08,14,09,25,25.80
2010,08,14,09,26,25.70
2010,08,14,09,27,25.70
2010,08,14,09,28,25.80
2010,08,14,09,29,25.80
2010,08,14,09,30,25.80
2010,08,14,09,31,25.80
2010,08,14,09,32,25.90
2010,08,14,09,33,25.90
2010,08,14,09,34,25.80
2010,08,14,09,35,25.80
2010,08,14,09,36,25.80
2010,08,14,09,37,25.90
2010,08,14,09,38,25.90
2010,08,14,09,39,25.90
2010,08,14,09,40,25.90
2010,08,14,09,41,25.90
2010,08,14,09,42,25.90
2010,08,14,09,43,25.90
2010,08,14,09,44,25.90
2010,08,14,09,45,25.90
2010,08,14,09,46,25.90
2010,08,14,09,47,25.90
2010,08,14,09,48,25.90
2010,08,14,09,49,25.90
2010,08,14,09,50,25.90
2010,08,14,09,51,26.00
2010,08,14,09,52,26.00
2010,08,14,09,53,26.10
2010,08,14,09,54,26.10
2010,08,14,09,55,26.10
2010,08,14,09,56,26.10
2010,08,14,09,57,26.10
2010,08,14,09,58,26.10
2010,08,14,09,59,26.10
2010,08,14,10,00,26.10
2010,08,14,10,01,26.10
2010,08,14,10,02,26.10
2010,08,14,10,03,26.10
2010,08,14,10,04,26.20
2010,08,14,10,05,26.20
2010,08,14,10,06,26.20
2010,08,14,10,07,26.30
2010,08,14,10,08,26.30
2010,08,14,10,09,26.40
2010,08,14,10,10,26.40
2010,08,14,10,11,26.40
2010,08,14,10,12,26.50
2010,08,14,10,13,26.60
2010,08,14,10,14,26.60
2010,08,14,10,15,26.60
2010,08,14,10,16,26.60
2010,08,14,10,17,26.60
2010,08,14,10,18,26.60
2010,08,14,10,19,26.60
2010,08,14,10,20,26.60
2010,08,14,10,21,26.70
2010,08,14,10,22,26.70
2010,08,14,10,23,26.80
2010,08,14,10,24,26.80
2010,08,14,10,25,26.80
2010,08,14,10,26,26.80
2010,08,14,10,27,26.80
2010,08,14,10,28,26.80
2010,08,14,10,29,26.80
2010,08,14,10,30,26.90
2010,08,14,10,31,26.90
2010,08,14,10,32,27.00
2010,08,14,10,33,27.10
2010,08,14,10,34,27.10
2010,08,14,10,35,27.10
2010,08,14,10,36,27.10
2010,08,14,10,37,27.10
2010,08,14,10,38,27.10
2010,08,14,10,39,27.10
2010,08,14,10,40,27.10
2010,08,14,10,41,27.10
2010,08,14,10,42,27.10
2010,08,14,10,43,27.10
2010,08,14,10,44,27.20
2010,08,14,10,45,27.20
2010,08,14,10,46,27.20
2010,08,14,10,47,27.20
2010,08,14,10,48,27.10
2010,08,14,10,49,27.10
2010,08,14,10,50,27.10
2010,08,14,10,51,27.10
2010,08,14,10,52,27.10
2010,08,14,10,53,27.10
2010,08,14,10,54,27.10
2010,08,14,10,55,27.10
2010,08,14,10,56,27.10
2010,08,14,10,57,27.10
2010,08,14,10,58,27.10
2010,08,14,10,59,27.10
2010,08,14,11,00,27.00
2010,08,14,11,01,26.90
2010,08,14,11,02,26.90
2010,08,14,11,03,27.00
2010,08,14,11,04,26.90
2010,08,14,11,05,26.90
2010,08,14,11,06,26.90
2010,08,14,11,07,26.90
2010,08,14,11,08,27.00
2010,08,14,11,09,27.10
2010,08,14,11,10,27.10
2010,08,14,11,11,27.20
2010,08,14,11,12,27.30
2010,08,14,11,13,27.30
2010,08,14,11,14,27.30
2010,08,14,11,15,27.30
2010,08,14,11,16,27.30
2010,08,14,11,17,27.30
2010,08,14,11,18,27.30
2010,08,14,11,19,27.30
2010,08,14,11,20,27.30
2010,08,14,11,21,27.30
2010,08,14,11,22,27.30
2010,08,14,11,23,27.20
2010,08,14,11,24,27.10
2010,08,14,11,25,27.10
2010,08,14,11,26,27.10
2010,08,14,11,27,27.10
2010,08,14,11,28,27.20
2010,08,14,11,29,27.30
2010,08,14,11,30,27.30
2010,08,14,11,31,27.30
2010,08,14,11,32,27.30
2010,08,14,11,33,27.30
2010,08,14,11,34,27.40
2010,08,14,11,35,27.50
2010,08,14,11,36,27.60
2010,08,14,11,37,27.60
2010,08,14,11,38,27.60
2010,08,14,11,39,27.50
2010,08,14,11,40,27.40
2010,08,14,11,41,27.40
2010,08,14,11,42,27.40
2010,08,14,11,43,27.40
2010,08,14,11,44,27.50
2010,08,14,11,45,27.60
2010,08,14,11,46,27.60
2010,08,14,11,47,27.60
2010,08,14,11,48,27.60
2010,08,14,11,49,27.60
2010,08,14,11,50,27.60
2010,08,14,11,51,27.60
2010,08,14,11,52,27.60
2010,08,14,11,53,27.70
2010,08,14,11,54,27.70
2010,08,14,11,55,27.70
2010,08,14,11,56,27.70
2010,08,14,11,57,27.80
2010,08,14,11,58,27.80
2010,08,14,11,59,27.80
2010,08,14,12,00,27.90
2010,08,14,12,01,27.90
2010,08,14,12,02,27.90
2010,08,14,12,03,27.90
2010,08,14,12,04,27.90
2010,08,14,12,05,28.00
2010,08,14,12,06,28.00
2010,08,14,12,07,28.10
2010,08,14,12,08,28.10
2010,08,14,12,09,28.10
2010,08,14,12,10,28.10
2010,08,14,12,11,28.10
2010,08,14,12,12,28.10
2010,08,14,12,13,28.00
2010,08,14,12,14,28.00
2010,08,14,12,15,28.00
2010,08,14,12,16,28.10
2010,08,14,12,17,28.10
2010,08,14,12,18,28.20
2010,08,14,12,19,28.40
2010,08,14,12,20,28.40
2010,08,14,12,21,28.40
2010,08,14,12,22,28.40
2010,08,14,12,23,28.40
2010,08,14,12,24,28.40
2010,08,14,12,25,28.40
2010,08,14,12,26,28.60
2010,08,14,12,27,28.60
2010,08,14,12,28,28.60
2010,08,14,12,29,28.60
2010,08,14,12,30,28.60
2010,08,14,12,31,28.60
2010,08,14,12,32,28.60
2010,08,14,12,33,28.60
2010,08,14,12,34,28.60
2010,08,14,12,35,28.60
2010,08,14,12,36,28.60
2010,08,14,12,37,28.70
2010,08,14,12,38,28.70
2010,08,14,12,39,28.70
2010,08,14,12,40,28.70
2010,08,14,12,41,28.80
2010,08,14,12,42,28.80
2010,08,14,12,43,28.90
2010,08,14,12,44,28.90
2010,08,14,12,45,28.80
2010,08,14,12,46,28.80
2010,08,14,12,47,28.90
2010,08,14,12,48,28.90
2010,08,14,12,49,28.90
2010,08,14,12,50,28.90
2010,08,14,12,51,28.90
2010,08,14,12,52,28.90
2010,08,14,12,53,28.90
2010,08,14,12,54,28.90
2010,08,14,12,55,29.00
2010,08,14,12,56,29.10
2010,08,14,12,57,29.10
2010,08,14,12,58,29.20
2010,08,14,12,59,29.20
2010,08,14,13,00,29.20
2010,08,14,13,01,29.20
2010,08,14,13,02,29.20
2010,08,14,13,03,29.20
2010,08,14,13,04,29.20
2010,08,14,13,05,29.30
2010,08,14,13,06,29.30
2010,08,14,13,07,29.30
2010,08,14,13,08,29.30
2010,08,14,13,09,29.30
2010,08,14,13,10,29.30
2010,08,14,13,11,29.40
2010,08,14,13,12,29.30
2010,08,14,13,13,29.40
2010,08,14,13,14,29.40
2010,08,14,13,15,29.50
2010,08,14,13,16,29.40
2010,08,14,13,17,29.40
2010,08,14,13,18,29.50
2010,08,14,13,19,29.50
2010,08,14,13,20,29.60
2010,08,14,13,21,29.60
2010,08,14,13,22,29.60
2010,08,14,13,23,29.70
2010,08,14,13,24,29.70
2010,08,14,13,25,29.70
2010,08,14,13,26,29.70
2010,08,14,13,27,29.60
2010,08,14,13,28,29.60
2010,08,14,13,29,29.70
2010,08,14,13,30,29.70
2010,08,14,13,31,29.70
2010,08,14,13,32,29.70
2010,08,14,13,33,29.70
2010,08,14,13,34,29.70
2010,08,14,13,35,29.80
2010,08,14,13,36,29.90
2010,08,14,13,37,30.10
2010,08,14,13,38,30.10
2010,08,14,13,39,30.10
2010,08,14,13,40,29.90
2010,08,14,13,41,29.90
2010,08,14,13,42,30.10
2010,08,14,13,43,30.20
2010,08,14,13,44,30.20
2010,08,14,13,45,30.30
2010,08,14,13,46,30.30
2010,08,14,13,47,30.30
2010,08,14,13,48,30.30
2010,08,14,13,49,30.20
2010,08,14,13,50,30.20
2010,08,14,13,51,30.30
2010,08,14,13,52,30.30
2010,08,14,13,53,30.30
2010,08,14,13,54,30.30
2010,08,14,13,55,30.30
2010,08,14,13,56,30.30
2010,08,14,13,57,30.40
2010,08,14,13,58,30.50
2010,08,14,13,59,30.60
2010,08,14,14,00,30.60
2010,08,14,14,01,30.60
2010,08,14,14,02,30.60
2010,08,14,14,03,30.60
2010,08,14,14,04,30.60
2010,08,14,14,05,30.60
2010,08,14,14,06,30.60
2010,08,14,14,07,30.60
2010,08,14,14,08,30.60
2010,08,14,14,09,30.60
2010,08,14,14,10,30.40
2010,08,14,14,11,30.40
2010,08,14,14,12,30.40
2010,08,14,14,13,30.40
2010,08,14,14,14,30.40
2010,08,14,14,15,30.50
2010,08,14,14,16,30.60
2010,08,14,14,17,30.70
2010,08,14,14,18,30.70
2010,08,14,14,19,30.70
2010,08,14,14,20,30.80
2010,08,14,14,21,30.80
2010,08,14,14,22,30.90
2010,08,14,14,23,30.90
2010,08,14,14,24,30.90
2010,08,14,14,25,31.00
2010,08,14,14,26,31.10
2010,08,14,14,27,31.10
2010,08,14,14,28,31.10
2010,08,14,14,29,31.10
2010,08,14,14,30,31.10
2010,08,14,14,31,31.10
2010,08,14,14,32,31.10
2010,08,14,14,33,31.20
2010,08,14,14,34,31.20
2010,08,14,14,35,31.30
2010,08,14,14,36,31.30
2010,08,14,14,37,31.30
2010,08,14,14,38,31.20
2010,08,14,14,39,31.20
2010,08,14,14,40,31.20
2010,08,14,14,41,31.20
2010,08,14,14,42,31.20
2010,08,14,14,43,31.20
2010,08,14,14,44,31.20
2010,08,14,14,45,31.30
2010,08,14,14,46,31.40
2010,08,14,14,47,31.40
2010,08,14,14,48,31.50
2010,08,14,14,49,31.60
2010,08,14,14,50,31.60
2010,08,14,14,51,31.60
2010,08,14,14,52,31.60
2010,08,14,14,53,31.70
2010,08,14,14,54,31.70
2010,08,14,14,55,31.70
2010,08,14,14,56,31.70
2010,08,14,14,57,31.70
2010,08,14,14,58,31.70
2010,08,14,14,59,31.70
2010,08,14,15,00,31.70
2010,08,14,15,01,31.70
2010,08,14,15,02,31.70
2010,08,14,15,03,31.70
2010,08,14,15,04,31.70
2010,08,14,15,05,31.70
2010,08,14,15,06,31.70
2010,08,14,15,07,31.70
2010,08,14,15,08,31.80
2010,08,14,15,09,31.90
2010,08,14,15,10,31.90
2010,08,14,15,11,32.00
2010,08,14,15,12,32.10
2010,08,14,15,13,32.10
2010,08,14,15,14,32.20
2010,08,14,15,15,32.10
2010,08,14,15,16,32.10
2010,08,14,15,17,32.10
2010,08,14,15,18,32.10
2010,08,14,15,19,32.10
2010,08,14,15,20,32.10
2010,08,14,15,21,32.10
2010,08,14,15,22,32.10
2010,08,14,15,23,32.20
2010,08,14,15,24,32.20
2010,08,14,15,25,32.20
2010,08,14,15,26,32.20
2010,08,14,15,27,32.10
2010,08,14,15,28,31.50
2010,08,14,15,29,30.70
2010,08,14,15,30,29.90
2010,08,14,15,31,29.40
2010,08,14,15,32,29.10
2010,08,14,15,33,28.80
2010,08,14,15,34,28.50
2010,08,14,15,35,28.30
2010,08,14,15,36,28.20
2010,08,14,15,37,28.20
2010,08,14,15,38,28.10
2010,08,14,15,39,27.90
2010,08,14,15,40,27.80
2010,08,14,15,41,27.70
2010,08,14,15,42,27.70
2010,08,14,15,43,27.60
2010,08,14,15,44,27.50
2010,08,14,15,45,27.40
2010,08,14,15,46,27.60
2010,08,14,15,47,27.70
2010,08,14,15,48,27.90
2010,08,14,15,49,28.10
2010,08,14,15,50,28.10
2010,08,14,15,51,28.10
2010,08,14,15,52,28.10
2010,08,14,15,53,28.20
2010,08,14,15,54,28.50
2010,08,14,15,55,28.70
2010,08,14,15,56,28.90
2010,08,14,15,57,29.20
2010,08,14,15,58,29.40
2010,08,14,15,59,29.70
2010,08,14,16,00,30.00
2010,08,14,16,01,30.30
2010,08,14,16,02,30.70
2010,08,14,16,03,31.00
2010,08,14,16,04,31.20
2010,08,14,16,05,31.40
2010,08,14,16,06,31.40
2010,08,14,16,07,31.40
2010,08,14,16,08,31.50
2010,08,14,16,09,31.60
2010,08,14,16,10,31.60
2010,08,14,16,11,31.80
2010,08,14,16,12,31.90
2010,08,14,16,13,31.90
2010,08,14,16,14,32.00
2010,08,14,16,15,32.10
2010,08,14,16,16,32.10
2010,08,14,16,17,32.10
2010,08,14,16,18,32.20
2010,08,14,16,19,32.20
2010,08,14,16,20,32.20
2010,08,14,16,21,32.30
2010,08,14,16,22,32.30
2010,08,14,16,23,32.30
2010,08,14,16,24,32.40
2010,08,14,16,25,32.60
2010,08,14,16,26,32.40
2010,08,14,16,27,31.80
2010,08,14,16,28,31.20
2010,08,14,16,29,30.60
2010,08,14,16,30,29.90
2010,08,14,16,31,29.30
2010,08,14,16,32,28.80
2010,08,14,16,33,28.50
2010,08,14,16,34,28.30
2010,08,14,16,35,28.10
2010,08,14,16,36,28.10
2010,08,14,16,37,28.10
2010,08,14,16,38,28.00
2010,08,14,16,39,27.70
2010,08,14,16,40,27.60
2010,08,14,16,41,27.60
2010,08,14,16,42,27.60
2010,08,14,16,43,27.50
2010,08,14,16,44,27.50
2010,08,14,16,45,27.60
2010,08,14,16,46,27.80
2010,08,14,16,47,27.90
2010,08,14,16,48,28.00
2010,08,14,16,49,28.10
2010,08,14,16,50,28.20
2010,08,14,16,51,28.20
2010,08,14,16,52,28.20
2010,08,14,16,53,28.30
2010,08,14,16,54,28.50
2010,08,14,16,55,28.70
2010,08,14,16,56,28.90
2010,08,14,16,57,29.00
2010,08,14,16,58,29.20
2010,08,14,16,59,29.40
2010,08,14,17,00,29.60
2010,08,14,17,01,29.90
2010,08,14,17,02,30.10
2010,08,14,17,03,30.40
2010,08,14,17,04,30.80
2010,08,14,17,05,31.10
2010,08,14,17,06,31.30
2010,08,14,17,07,31.50
2010,08,14,17,08,31.70
2010,08,14,17,09,31.90
2010,08,14,17,10,32.00
2010,08,14,17,11,32.10
2010,08,14,17,12,32.20
2010,08,14,17,13,32.30
2010,08,14,17,14,32.30
2010,08,14,17,15,32.30
2010,08,14,17,16,32.40
2010,08,14,17,17,32.40
2010,08,14,17,18,32.40
2010,08,14,17,19,32.40